Weather History for KD39 - August, 2013

Change the Weather History Date:

Monday, August 19, 2013

  Actual Average (KGHW) Record (KGHW)
Temperature  
Mean Temperature 76 °F -  
Max Temperature 87 °F 79 °F 95 °F (1998)
Min Temperature 64 °F 55 °F 39 °F (2004)
Cooling Degree Days 10    
Growing Degree Days 26 (Base 50)    
Moisture  
Dew Point 64 °F    
Average Humidity 73    
Maximum Humidity 90    
Minimum Humidity 52    
Precipitation  
Precipitation 0.00 in - - ()
Sea Level Pressure  
Sea Level Pressure 29.93 in    
Wind  
Wind Speed 7 mph (South)    
Max Wind Speed 14 mph    
Max Gust Speed 18 mph    
Visibility 10 miles    
Events      
Averages and records for this station are not official NWS values.
T = Trace of Precipitation, MM = Missing Value Source: NWS Daily Summary

Daily Weather History Graph

Daily Weather History Graph

Search for Another Location

Airport or City:

Trip Planner

Search our weather history database for the weather conditions in past years. The results will help you decide how hot, cold, wet, or windy it might be!

Date:

Astronomy

Aug. 19, 2013 Rise Set
Actual Time 6:25 AM CDT 8:20 PM CDT
Civil Twilight 5:53 AM CDT 8:52 PM CDT
Nautical Twilight 5:13 AM CDT 9:31 PM CDT
Astronomical Twilight 4:30 AM CDT 10:14 PM CDT
Moon 7:11 PM CDT (8/19) 4:43 AM CDT (8/19)
Length of Visible Light 14h 59m
Length of Day
13h 55m
Waxing Gibbous, 97% of the Moon is Illuminated
Aug 19
Waxing Gibbous
Aug 20
Full
Aug 28
Last Quarter
Sep 5
New
Sep 12
First Quarter

Hourly Weather History & Observations

Time (CDT) Temp. Heat Index Dew Point Humidity Pressure Visibility Wind Dir Wind Speed Gust Speed Precip Events Conditions
12:13 AM 68.5 °F - 59.5 °F 73% 30.01 in 10.0 mi SE 5.8 mph - N/A   Overcast
12:33 AM 68.9 °F - 59.9 °F 73% 30.00 in 10.0 mi SSE 6.9 mph - N/A   Overcast
12:52 AM 69.1 °F - 59.7 °F 72% 29.99 in 10.0 mi South 9.2 mph - N/A   Mostly Cloudy
1:13 AM 68.9 °F - 59.5 °F 72% 29.98 in 10.0 mi South 11.5 mph - N/A   Clear
1:32 AM 68.9 °F - 59.5 °F 72% 29.99 in 10.0 mi South 9.2 mph - N/A   Clear
1:53 AM 68.4 °F - 59.5 °F 73% 29.99 in 10.0 mi SSW 10.4 mph - N/A   Clear
2:12 AM 68.2 °F - 59.5 °F 74% 29.99 in 10.0 mi SSW 10.4 mph - N/A   Clear
2:33 AM 68.0 °F - 59.9 °F 75% 29.97 in 10.0 mi SSW 9.2 mph - N/A   Scattered Clouds
2:53 AM 67.6 °F - 59.9 °F 76% 29.97 in 10.0 mi SSW 6.9 mph - N/A   Clear
3:12 AM 67.5 °F - 60.1 °F 77% 29.97 in 10.0 mi SSW 4.6 mph - N/A   Scattered Clouds
3:33 AM 67.3 °F - 59.9 °F 77% 29.97 in 10.0 mi South 4.6 mph - N/A   Clear
3:52 AM 67.1 °F - 59.9 °F 78% 29.96 in 10.0 mi South 6.9 mph - N/A   Clear
4:12 AM 66.9 °F - 59.9 °F 78% 29.96 in 10.0 mi South 4.6 mph - N/A   Clear
4:33 AM 65.8 °F - 60.4 °F 83% 29.95 in 10.0 mi South 6.9 mph - N/A   Scattered Clouds
4:53 AM 65.5 °F - 60.4 °F 84% 29.94 in 10.0 mi South 5.8 mph - N/A   Clear
5:12 AM 65.3 °F - 60.3 °F 84% 29.94 in 10.0 mi South 4.6 mph - N/A   Clear
5:33 AM 64.8 °F - 60.3 °F 85% 29.94 in 10.0 mi Calm Calm - N/A   Clear
5:52 AM 64.6 °F - 60.1 °F 85% 29.94 in 10.0 mi South 4.6 mph - N/A   Clear
6:12 AM 64.9 °F - 60.1 °F 84% 29.94 in 10.0 mi South 4.6 mph - N/A   Clear
6:33 AM 64.8 °F - 59.9 °F 84% 29.94 in 10.0 mi South 4.6 mph - N/A   Clear
6:52 AM 64.6 °F - 60.1 °F 85% 29.94 in 10.0 mi SSE 4.6 mph - N/A   Clear
7:12 AM 64.8 °F - 60.3 °F 85% 29.94 in 10.0 mi SSE 4.6 mph - N/A   Clear
7:33 AM 64.8 °F - 60.3 °F 85% 29.94 in 10.0 mi South 5.8 mph - N/A   Clear
7:52 AM 65.5 °F - 60.4 °F 84% 29.94 in 10.0 mi South 5.8 mph - N/A   Clear
8:12 AM 66.9 °F - 60.8 °F 81% 29.95 in 10.0 mi South 5.8 mph - N/A   Clear
8:33 AM 67.6 °F - 61.0 °F 79% 29.95 in 10.0 mi South 6.9 mph - N/A   Clear
8:52 AM 68.9 °F - 61.7 °F 78% 29.94 in 10.0 mi South 8.1 mph - N/A   Clear
9:13 AM 68.7 °F - 61.7 °F 78% 29.95 in 10.0 mi South 5.8 mph - N/A   Clear
9:33 AM 70.7 °F - 62.4 °F 75% 29.95 in 10.0 mi SSW 6.9 mph - N/A   Clear
9:52 AM 72.5 °F - 62.8 °F 71% 29.95 in 10.0 mi SSW 9.2 mph - N/A   Clear
10:13 AM 73.8 °F - 62.8 °F 68% 29.95 in 10.0 mi SW 9.2 mph - N/A   Clear
10:32 AM 75.6 °F - 63.7 °F 66% 29.94 in 10.0 mi SSW 8.1 mph - N/A   Clear
10:52 AM 76.1 °F - 63.9 °F 66% 29.95 in 10.0 mi SSW 6.9 mph - N/A   Clear
11:13 AM 77.5 °F - 64.8 °F 65% 29.95 in 10.0 mi SSW 8.1 mph - N/A   Clear
11:32 AM 77.9 °F - 64.8 °F 64% 29.95 in 10.0 mi SW 6.9 mph - N/A   Clear
11:52 AM 79.0 °F - 65.3 °F 63% 29.94 in 10.0 mi SSW 5.8 mph - N/A   Clear
12:13 PM 80.6 °F 82.7 °F 65.8 °F 61% 29.94 in 10.0 mi SW 6.9 mph - N/A   Clear
12:32 PM 81.7 °F 83.8 °F 66.0 °F 59% 29.94 in 10.0 mi South 5.8 mph - N/A   Clear
12:52 PM 82.9 °F 85.2 °F 66.4 °F 57% 29.94 in 10.0 mi SSW 8.1 mph - N/A   Clear
1:13 PM 83.5 °F 86.0 °F 66.6 °F 57% 29.92 in 10.0 mi South 8.1 mph - N/A   Clear
1:32 PM 84.4 °F 86.8 °F 66.6 °F 55% 29.92 in 10.0 mi SSE 5.8 mph - N/A   Clear
1:52 PM 85.3 °F 87.6 °F 66.2 °F 53% 29.92 in 10.0 mi SSW 5.8 mph 16.1 mph N/A   Clear
2:13 PM - - - N/A% 29.91 in 10.0 mi South 11.5 mph - N/A   Clear
2:32 PM - - - N/A% 29.91 in 10.0 mi SSW 12.7 mph 17.3 mph N/A   Scattered Clouds
2:52 PM - - - N/A% 29.91 in 10.0 mi South 10.4 mph 17.3 mph N/A   Scattered Clouds
3:13 PM - - - N/A% 29.91 in 10.0 mi South 11.5 mph 18.4 mph N/A   Scattered Clouds
3:32 PM 86.0 °F 88.5 °F 66.6 °F 52% 29.91 in 10.0 mi South 13.8 mph 18.4 mph N/A   Scattered Clouds
3:52 PM 87.1 °F 90.2 °F 67.6 °F 52% 29.90 in 10.0 mi South 12.7 mph 17.3 mph N/A   Scattered Clouds
4:13 PM 85.3 °F 88.2 °F 67.6 °F 55% 29.89 in 10.0 mi SSE 10.4 mph - N/A   Mostly Cloudy
4:32 PM - - - N/A% 29.89 in 10.0 mi South 11.5 mph - N/A   Overcast
4:53 PM - - - N/A% 29.89 in 10.0 mi SSW 13.8 mph - N/A   Overcast
5:13 PM - - - N/A% 29.89 in 10.0 mi South 9.2 mph - N/A   Mostly Cloudy
5:32 PM - - - N/A% 29.89 in 10.0 mi South 12.7 mph - N/A   Mostly Cloudy
5:53 PM 83.7 °F 87.0 °F 68.4 °F 60% 29.88 in 10.0 mi SSW 9.2 mph - N/A   Mostly Cloudy
6:12 PM 85.1 °F 88.8 °F 68.7 °F 58% 29.88 in 10.0 mi SSE 11.5 mph - N/A   Mostly Cloudy
6:32 PM - - - N/A% 29.88 in 10.0 mi South 8.1 mph - N/A   Mostly Cloudy
6:53 PM 83.5 °F 87.2 °F 69.1 °F 62% 29.87 in 10.0 mi SSE 11.5 mph - N/A   Scattered Clouds
7:12 PM - - - N/A% 29.87 in 10.0 mi SSE 8.1 mph - N/A   Scattered Clouds
7:32 PM 81.5 °F 84.9 °F 69.8 °F 67% 29.87 in 10.0 mi SSE 6.9 mph - N/A   Scattered Clouds
7:53 PM 80.6 °F 83.9 °F 70.0 °F 70% 29.87 in 10.0 mi SE 8.1 mph - N/A   Mostly Cloudy
8:12 PM 79.7 °F - 70.0 °F 72% 29.87 in 10.0 mi SE 9.2 mph - N/A   Mostly Cloudy
8:32 PM 78.4 °F - 69.8 °F 75% 29.88 in 10.0 mi SE 8.1 mph - N/A   Mostly Cloudy
8:53 PM 77.5 °F - 69.6 °F 76% 29.88 in 10.0 mi SE 8.1 mph - N/A   Scattered Clouds
9:12 PM 76.6 °F - 69.4 °F 78% 29.89 in 10.0 mi SSE 5.8 mph - N/A   Scattered Clouds
9:32 PM 75.4 °F - 69.3 °F 81% 29.89 in 10.0 mi SE 5.8 mph - N/A   Scattered Clouds
9:53 PM 75.2 °F - 69.4 °F 82% 29.89 in 10.0 mi SE 6.9 mph - N/A   Clear
10:12 PM 74.5 °F - 69.3 °F 84% 29.89 in 10.0 mi SE 5.8 mph - N/A   Clear
10:32 PM 73.9 °F - 69.3 °F 85% 29.89 in 10.0 mi SE 5.8 mph - N/A   Scattered Clouds
10:53 PM 73.4 °F - 69.1 °F 86% 29.89 in 10.0 mi SE 4.6 mph - N/A   Scattered Clouds
11:12 PM 73.4 °F - 69.3 °F 87% 29.89 in 10.0 mi SSE 5.8 mph - N/A   Mostly Cloudy
11:32 PM 72.5 °F - 68.9 °F 88% 29.89 in 10.0 mi SSE 4.6 mph - N/A   Mostly Cloudy
11:53 PM 71.6 °F - 68.5 °F 90% 29.88 in 10.0 mi SSE 5.8 mph - N/A   Scattered Clouds